Time,TemperatureF,DewpointF,PressureIn,WindDirection,WindDirectionDegrees,WindSpeedMPH,WindSpeedGustMPH,Humidity,HourlyPrecipIn,Conditions,Clouds,dailyrainin,SoftwareType,DateUTC
2013-05-16 00:02:00,51.8,46.8,30.03,West,270,0.4,0.4,83,0.00,,,0.00,WUHU216HW,2013-05-16 07:02:00,
2013-05-16 00:07:00,51.8,46.8,30.03,West,270,0.9,0.9,83,0.00,,,0.00,WUHU216HW,2013-05-16 07:07:00,
2013-05-16 00:12:00,51.8,46.8,30.03,West,270,0.0,0.9,83,0.00,,,0.00,WUHU216HW,2013-05-16 07:12:00,
2013-05-16 00:17:00,52.0,47.0,30.03,West,270,0.0,0.4,83,0.00,,,0.00,WUHU216HW,2013-05-16 07:17:00,
2013-05-16 00:22:00,52.0,47.0,30.03,West,270,0.0,0.0,83,0.00,,,0.00,WUHU216HW,2013-05-16 07:22:00,
2013-05-16 00:27:00,52.0,47.0,30.03,West,270,0.0,0.0,83,0.00,,,0.00,WUHU216HW,2013-05-16 07:27:00,
2013-05-16 00:32:00,52.0,47.0,30.03,WNW,293,0.0,0.0,83,0.00,,,0.00,WUHU216HW,2013-05-16 07:32:00,
2013-05-16 00:37:00,52.0,47.4,30.03,NW,315,0.0,0.0,84,0.00,,,0.00,WUHU216HW,2013-05-16 07:37:00,
2013-05-16 00:42:00,52.0,47.4,30.03,NNE,23,0.7,0.9,84,0.00,,,0.00,WUHU216HW,2013-05-16 07:42:00,
2013-05-16 00:47:00,52.0,47.4,30.03,NNE,23,0.0,0.9,84,0.00,,,0.00,WUHU216HW,2013-05-16 07:47:00,
2013-05-16 00:52:00,51.8,47.2,30.03,NNE,23,0.0,0.4,84,0.00,,,0.00,WUHU216HW,2013-05-16 07:52:00,
2013-05-16 00:57:00,51.8,47.2,30.03,NNE,23,0.2,0.4,84,0.00,,,0.00,WUHU216HW,2013-05-16 07:57:00,
2013-05-16 01:02:00,51.8,47.2,30.03,NNE,23,0.9,0.9,84,0.00,,,0.00,WUHU216HW,2013-05-16 08:02:00,
2013-05-16 01:07:00,51.8,47.2,30.03,NNE,23,1.1,1.1,84,0.00,,,0.00,WUHU216HW,2013-05-16 08:07:00,
2013-05-16 01:12:00,51.8,47.2,30.03,ENE,68,1.3,1.3,84,0.00,,,0.00,WUHU216HW,2013-05-16 08:12:00,
2013-05-16 01:17:00,51.8,47.2,30.03,NE,45,0.9,1.3,84,0.00,,,0.00,WUHU216HW,2013-05-16 08:17:00,
2013-05-16 01:22:00,51.8,47.4,30.03,North,0,0.4,1.1,85,0.00,,,0.00,WUHU216HW,2013-05-16 08:22:00,
2013-05-16 01:27:00,51.8,47.4,30.02,North,0,0.0,1.1,85,0.00,,,0.00,WUHU216HW,2013-05-16 08:27:00,
2013-05-16 01:32:00,52.0,47.6,30.02,North,0,0.0,0.7,85,0.00,,,0.00,WUHU216HW,2013-05-16 08:32:00,
2013-05-16 01:37:00,52.0,47.6,30.02,North,0,0.0,0.7,85,0.00,,,0.00,WUHU216HW,2013-05-16 08:37:00,
2013-05-16 01:42:00,52.0,47.6,30.02,North,0,0.0,0.7,85,0.00,,,0.00,WUHU216HW,2013-05-16 08:42:00,
2013-05-16 01:47:00,52.0,47.6,30.02,North,0,0.4,0.4,85,0.00,,,0.00,WUHU216HW,2013-05-16 08:47:00,
2013-05-16 01:52:00,52.2,47.8,30.02,North,0,0.4,0.4,85,0.00,,,0.00,WUHU216HW,2013-05-16 08:52:00,
2013-05-16 01:57:00,52.0,47.6,30.02,North,0,0.0,1.1,85,0.00,,,0.00,WUHU216HW,2013-05-16 08:57:00,
2013-05-16 02:02:00,52.2,47.8,30.02,North,0,0.4,1.1,85,0.00,,,0.00,WUHU216HW,2013-05-16 09:02:00,
2013-05-16 02:07:00,52.0,47.6,30.02,North,0,0.0,0.4,85,0.00,,,0.00,WUHU216HW,2013-05-16 09:07:00,
2013-05-16 02:12:00,52.2,47.8,30.02,North,0,0.0,0.4,85,0.00,,,0.00,WUHU216HW,2013-05-16 09:12:00,
2013-05-16 02:17:00,52.2,47.8,30.02,North,0,0.0,0.0,85,0.00,,,0.00,WUHU216HW,2013-05-16 09:17:00,
2013-05-16 02:22:00,52.2,47.8,30.02,North,0,0.0,0.0,85,0.00,,,0.00,WUHU216HW,2013-05-16 09:22:00,
2013-05-16 02:27:00,52.2,47.8,30.02,West,270,0.0,0.0,85,0.00,,,0.00,WUHU216HW,2013-05-16 09:27:00,
2013-05-16 02:32:00,52.2,47.8,30.02,WSW,248,0.0,0.0,85,0.00,,,0.00,WUHU216HW,2013-05-16 09:32:00,
2013-05-16 02:37:00,52.2,47.8,30.02,SSE,158,0.9,0.9,85,0.00,,,0.00,WUHU216HW,2013-05-16 09:37:00,
2013-05-16 02:42:00,52.2,47.8,30.01,SSE,158,0.0,0.9,85,0.00,,,0.00,WUHU216HW,2013-05-16 09:42:00,
2013-05-16 02:47:00,52.2,47.8,30.02,SSE,158,0.0,0.4,85,0.00,,,0.00,WUHU216HW,2013-05-16 09:47:00,
2013-05-16 02:52:00,52.2,47.8,30.02,SSE,158,0.0,0.0,85,0.00,,,0.00,WUHU216HW,2013-05-16 09:52:00,
2013-05-16 02:57:00,52.2,47.8,30.01,SE,135,0.0,0.0,85,0.00,,,0.00,WUHU216HW,2013-05-16 09:57:00,
2013-05-16 03:02:00,52.2,47.8,30.01,ESE,113,0.7,0.7,85,0.00,,,0.00,WUHU216HW,2013-05-16 10:02:00,
2013-05-16 03:07:00,52.2,48.1,30.01,ESE,113,0.2,0.7,86,0.00,,,0.00,WUHU216HW,2013-05-16 10:07:00,
2013-05-16 03:12:00,52.2,48.1,30.01,ESE,113,0.9,0.9,86,0.00,,,0.00,WUHU216HW,2013-05-16 10:12:00,
2013-05-16 03:17:00,52.2,48.1,30.01,ENE,68,1.1,1.3,86,0.00,,,0.00,WUHU216HW,2013-05-16 10:17:00,
2013-05-16 03:22:00,52.2,48.1,30.01,ENE,68,0.0,1.3,86,0.00,,,0.00,WUHU216HW,2013-05-16 10:22:00,
2013-05-16 03:27:00,52.2,48.1,30.01,ENE,68,0.0,1.3,86,0.00,,,0.00,WUHU216HW,2013-05-16 10:27:00,
2013-05-16 03:32:00,52.0,47.9,30.01,NNE,23,0.0,0.4,86,0.00,,,0.00,WUHU216HW,2013-05-16 10:32:00,
2013-05-16 03:37:00,52.0,47.9,30.01,NNE,23,0.0,0.7,86,0.00,,,0.00,WUHU216HW,2013-05-16 10:37:00,
2013-05-16 03:42:00,52.0,47.9,30.01,NE,45,0.0,0.9,86,0.00,,,0.00,WUHU216HW,2013-05-16 10:42:00,
2013-05-16 03:47:00,52.0,47.9,30.01,NNE,23,0.0,0.9,86,0.00,,,0.00,WUHU216HW,2013-05-16 10:47:00,
2013-05-16 03:52:00,52.0,47.9,30.01,North,0,0.0,0.7,86,0.00,,,0.00,WUHU216HW,2013-05-16 10:52:00,
2013-05-16 03:57:00,52.0,47.9,30.01,North,0,0.0,1.1,86,0.00,,,0.00,WUHU216HW,2013-05-16 10:57:00,
2013-05-16 04:02:00,52.0,47.9,30.01,NNW,338,0.4,1.1,86,0.00,,,0.00,WUHU216HW,2013-05-16 11:02:00,
2013-05-16 04:07:00,52.0,47.9,30.01,North,0,0.0,1.1,86,0.00,,,0.00,WUHU216HW,2013-05-16 11:07:00,
2013-05-16 04:12:00,52.0,47.9,30.01,NE,45,0.7,1.1,86,0.00,,,0.00,WUHU216HW,2013-05-16 11:12:00,
2013-05-16 04:17:00,52.0,47.9,30.01,SW,225,0.0,1.1,86,0.00,,,0.00,WUHU216HW,2013-05-16 11:17:00,
2013-05-16 04:22:00,52.0,47.9,30.01,South,180,0.0,1.1,86,0.00,,,0.00,WUHU216HW,2013-05-16 11:22:00,
2013-05-16 04:27:00,52.0,47.9,30.01,SSW,203,0.0,1.1,86,0.00,,,0.00,WUHU216HW,2013-05-16 11:27:00,
2013-05-16 04:32:00,52.0,47.9,30.01,SSW,203,0.0,0.0,86,0.00,,,0.00,WUHU216HW,2013-05-16 11:32:00,
2013-05-16 04:37:00,52.0,47.9,30.01,NE,45,0.0,0.4,86,0.00,,,0.00,WUHU216HW,2013-05-16 11:37:00,
2013-05-16 04:42:00,52.0,47.9,30.00,NNW,338,0.4,0.4,86,0.00,,,0.00,WUHU216HW,2013-05-16 11:42:00,
2013-05-16 04:47:00,51.8,47.7,30.00,North,0,0.0,1.1,86,0.00,,,0.00,WUHU216HW,2013-05-16 11:47:00,
2013-05-16 04:52:00,51.8,47.7,30.01,North,0,0.0,1.1,86,0.00,,,0.00,WUHU216HW,2013-05-16 11:52:00,
2013-05-16 04:57:00,52.0,47.9,30.01,North,0,0.0,0.0,86,0.00,,,0.00,WUHU216HW,2013-05-16 11:57:00,
2013-05-16 05:02:00,52.0,47.9,30.01,WSW,248,0.0,0.0,86,0.00,,,0.00,WUHU216HW,2013-05-16 12:02:00,
2013-05-16 05:07:00,52.0,47.9,30.01,WSW,248,0.0,0.0,86,0.00,,,0.00,WUHU216HW,2013-05-16 12:07:00,
2013-05-16 05:12:00,52.0,47.9,30.00,WSW,248,0.0,0.0,86,0.00,,,0.00,WUHU216HW,2013-05-16 12:12:00,
2013-05-16 05:17:00,52.0,47.9,30.00,WNW,293,0.0,0.0,86,0.00,,,0.00,WUHU216HW,2013-05-16 12:17:00,
2013-05-16 05:22:00,52.0,47.9,30.00,SSW,203,0.4,0.4,86,0.00,,,0.00,WUHU216HW,2013-05-16 12:22:00,
2013-05-16 05:27:00,52.0,48.3,30.00,West,270,0.7,0.7,87,0.00,,,0.00,WUHU216HW,2013-05-16 12:27:00,
2013-05-16 05:32:00,52.2,48.4,30.01,North,0,0.0,0.7,87,0.00,,,0.00,WUHU216HW,2013-05-16 12:32:00,
2013-05-16 05:37:00,52.0,48.3,30.00,North,0,0.0,0.7,87,0.00,,,0.00,WUHU216HW,2013-05-16 12:37:00,
2013-05-16 05:42:00,52.0,48.3,30.00,North,0,0.0,0.7,87,0.00,,,0.00,WUHU216HW,2013-05-16 12:42:00,
2013-05-16 05:47:00,52.0,48.3,30.00,North,0,0.0,0.0,87,0.00,,,0.00,WUHU216HW,2013-05-16 12:47:00,
2013-05-16 05:52:00,52.0,48.3,30.00,NNW,338,0.0,0.0,87,0.00,,,0.00,WUHU216HW,2013-05-16 12:52:00,
2013-05-16 05:57:00,52.2,48.4,30.01,North,0,0.0,0.0,87,0.00,,,0.00,WUHU216HW,2013-05-16 12:57:00,
2013-05-16 06:02:00,52.2,48.4,30.01,North,0,0.0,0.0,87,0.00,,,0.00,WUHU216HW,2013-05-16 13:02:00,
2013-05-16 06:07:00,52.2,48.4,30.01,North,0,0.0,0.2,87,0.00,,,0.00,WUHU216HW,2013-05-16 13:07:00,
2013-05-16 06:12:00,52.2,48.4,30.00,NW,315,0.7,0.7,87,0.00,,,0.00,WUHU216HW,2013-05-16 13:12:00,
2013-05-16 06:17:00,52.2,48.4,30.01,SE,135,0.0,0.7,87,0.00,,,0.00,WUHU216HW,2013-05-16 13:17:00,
2013-05-16 06:22:00,52.2,48.4,30.01,SE,135,0.0,0.9,87,0.00,,,0.00,WUHU216HW,2013-05-16 13:22:00,
2013-05-16 06:27:00,52.4,48.6,30.00,East,90,0.0,0.9,87,0.00,,,0.00,WUHU216HW,2013-05-16 13:27:00,
2013-05-16 06:32:00,52.4,48.6,30.01,NW,315,0.0,1.1,87,0.00,,,0.00,WUHU216HW,2013-05-16 13:32:00,
2013-05-16 06:37:00,52.6,48.8,30.00,NW,315,0.0,1.1,87,0.00,,,0.00,WUHU216HW,2013-05-16 13:37:00,
2013-05-16 06:42:00,52.6,48.8,30.01,NNE,23,0.0,0.4,87,0.00,,,0.00,WUHU216HW,2013-05-16 13:42:00,
2013-05-16 06:47:00,52.6,48.8,30.00,North,0,0.0,0.4,87,0.00,,,0.00,WUHU216HW,2013-05-16 13:47:00,
2013-05-16 06:52:00,52.7,49.0,30.01,North,0,0.0,0.2,87,0.00,,,0.00,WUHU216HW,2013-05-16 13:52:00,
2013-05-16 06:57:00,52.9,49.2,30.01,NW,315,0.0,0.4,87,0.00,,,0.00,WUHU216HW,2013-05-16 13:57:00,
2013-05-16 07:02:00,52.9,49.4,30.01,NW,315,0.4,0.4,88,0.00,,,0.00,WUHU216HW,2013-05-16 14:02:00,
2013-05-16 07:07:00,52.9,49.4,30.01,WNW,293,0.9,1.1,88,0.00,,,0.00,WUHU216HW,2013-05-16 14:07:00,
2013-05-16 07:12:00,53.1,49.6,30.01,NW,315,0.7,1.1,88,0.00,,,0.00,WUHU216HW,2013-05-16 14:12:00,
2013-05-16 07:17:00,53.1,49.6,30.01,NNE,23,1.1,1.1,88,0.00,,,0.00,WUHU216HW,2013-05-16 14:17:00,
2013-05-16 07:22:00,53.3,49.8,30.01,ESE,113,0.0,1.1,88,0.00,,,0.00,WUHU216HW,2013-05-16 14:22:00,
2013-05-16 07:27:00,53.5,49.7,30.01,WNW,293,0.9,0.9,87,0.00,,,0.00,WUHU216HW,2013-05-16 14:27:00,
2013-05-16 07:32:00,53.5,50.0,30.01,WSW,248,1.6,1.6,88,0.00,,,0.00,WUHU216HW,2013-05-16 14:32:00,
2013-05-16 07:37:00,53.6,49.9,30.01,SW,225,2.9,2.9,87,0.00,,,0.00,WUHU216HW,2013-05-16 14:37:00,
2013-05-16 07:42:00,53.6,49.9,30.01,WSW,248,0.2,2.9,87,0.00,,,0.00,WUHU216HW,2013-05-16 14:42:00,
2013-05-16 07:47:00,53.6,49.9,30.01,SW,225,0.0,1.8,87,0.00,,,0.00,WUHU216HW,2013-05-16 14:47:00,
2013-05-16 07:52:00,53.6,49.9,30.01,WSW,248,0.9,0.9,87,0.00,,,0.00,WUHU216HW,2013-05-16 14:52:00,
2013-05-16 07:57:00,53.8,50.1,30.01,SW,225,0.4,0.9,87,0.00,,,0.00,WUHU216HW,2013-05-16 14:57:00,
2013-05-16 08:02:00,53.8,50.1,30.01,WSW,248,0.7,1.8,87,0.00,,,0.00,WUHU216HW,2013-05-16 15:02:00,
2013-05-16 08:07:00,53.8,50.1,30.01,SE,135,0.0,1.8,87,0.00,,,0.00,WUHU216HW,2013-05-16 15:07:00,
2013-05-16 08:12:00,54.0,50.2,30.01,NW,315,0.0,0.4,87,0.00,,,0.00,WUHU216HW,2013-05-16 15:12:00,
2013-05-16 08:17:00,54.0,50.2,30.01,WNW,293,0.2,1.3,87,0.00,,,0.00,WUHU216HW,2013-05-16 15:17:00,
2013-05-16 08:22:00,54.4,50.6,30.01,WNW,293,0.0,1.3,87,0.00,,,0.00,WUHU216HW,2013-05-16 15:22:00,
2013-05-16 08:27:00,54.5,50.8,30.01,West,270,0.4,0.4,87,0.00,,,0.00,WUHU216HW,2013-05-16 15:27:00,
2013-05-16 08:32:00,54.7,50.9,30.01,WSW,248,0.0,0.7,87,0.00,,,0.00,WUHU216HW,2013-05-16 15:32:00,
2013-05-16 08:37:00,54.9,51.0,30.01,SSW,203,0.0,0.7,87,0.00,,,0.00,WUHU216HW,2013-05-16 15:37:00,
2013-05-16 08:42:00,54.9,51.0,30.01,NE,45,0.0,1.1,87,0.00,,,0.00,WUHU216HW,2013-05-16 15:42:00,
2013-05-16 08:47:00,54.9,50.8,30.01,NNE,23,0.0,1.1,86,0.00,,,0.00,WUHU216HW,2013-05-16 15:47:00,
2013-05-16 08:52:00,54.9,50.8,30.01,WSW,248,1.1,1.1,86,0.00,,,0.00,WUHU216HW,2013-05-16 15:52:00,
2013-05-16 08:57:00,54.9,50.8,30.01,SSW,203,1.1,1.8,86,0.00,,,0.00,WUHU216HW,2013-05-16 15:57:00,
2013-05-16 09:02:00,54.9,50.8,30.01,SW,225,1.8,2.5,86,0.00,,,0.00,WUHU216HW,2013-05-16 16:02:00,
2013-05-16 09:07:00,54.9,50.8,30.02,WSW,248,1.1,2.5,86,0.00,,,0.00,WUHU216HW,2013-05-16 16:07:00,
2013-05-16 09:12:00,54.7,50.6,30.01,WSW,248,1.8,2.2,86,0.00,,,0.00,WUHU216HW,2013-05-16 16:12:00,
2013-05-16 09:17:00,54.9,50.8,30.01,WSW,248,1.8,2.7,86,0.00,,,0.00,WUHU216HW,2013-05-16 16:17:00,
2013-05-16 09:22:00,54.9,50.8,30.01,West,270,1.8,2.7,86,0.00,,,0.00,WUHU216HW,2013-05-16 16:22:00,
2013-05-16 09:27:00,55.1,51.0,30.01,WNW,293,1.3,1.8,86,0.00,,,0.00,WUHU216HW,2013-05-16 16:27:00,
2013-05-16 09:32:00,55.1,51.0,30.01,WSW,248,1.1,1.6,86,0.00,,,0.00,WUHU216HW,2013-05-16 16:32:00,
2013-05-16 09:37:00,55.1,51.0,30.01,WSW,248,0.4,1.6,86,0.00,,,0.00,WUHU216HW,2013-05-16 16:37:00,
2013-05-16 09:42:00,55.4,51.3,30.02,SW,225,1.1,1.1,86,0.00,,,0.00,WUHU216HW,2013-05-16 16:42:00,
2013-05-16 09:47:00,55.6,51.5,30.02,SSW,203,1.6,1.6,86,0.00,,,0.00,WUHU216HW,2013-05-16 16:47:00,
2013-05-16 09:52:00,55.8,51.7,30.02,WSW,248,0.9,1.6,86,0.00,,,0.00,WUHU216HW,2013-05-16 16:52:00,
2013-05-16 09:57:00,56.0,51.9,30.02,WSW,248,0.4,1.3,86,0.00,,,0.00,WUHU216HW,2013-05-16 16:57:00,
2013-05-16 10:02:00,56.2,52.0,30.02,ESE,113,0.2,1.1,86,0.00,,,0.00,WUHU216HW,2013-05-16 17:02:00,
2013-05-16 10:07:00,56.3,52.2,30.02,SSW,203,0.2,1.1,86,0.00,,,0.00,WUHU216HW,2013-05-16 17:07:00,
2013-05-16 10:12:00,56.3,52.2,30.02,WSW,248,2.2,2.2,86,0.00,,,0.00,WUHU216HW,2013-05-16 17:12:00,
2013-05-16 10:17:00,56.7,52.6,30.02,SW,225,1.8,2.2,86,0.00,,,0.00,WUHU216HW,2013-05-16 17:17:00,
2013-05-16 10:23:00,57.1,52.9,30.02,South,180,0.2,2.5,86,0.00,,,0.00,WUHU216HW,2013-05-16 17:23:00,
2013-05-16 10:28:00,57.6,53.7,30.02,WSW,248,1.1,2.5,87,0.00,,,0.00,WUHU216HW,2013-05-16 17:28:00,
2013-05-16 10:33:00,58.0,54.1,30.02,SW,225,2.7,2.7,87,0.00,,,0.00,WUHU216HW,2013-05-16 17:33:00,
2013-05-16 10:38:00,58.1,54.0,30.02,WSW,248,2.9,3.1,86,0.00,,,0.00,WUHU216HW,2013-05-16 17:38:00,
2013-05-16 10:43:00,58.1,54.0,30.02,WSW,248,3.1,3.4,86,0.00,,,0.00,WUHU216HW,2013-05-16 17:43:00,
2013-05-16 10:48:00,58.1,54.0,30.02,WSW,248,2.0,3.4,86,0.00,,,0.00,WUHU216HW,2013-05-16 17:48:00,
2013-05-16 10:53:00,58.1,54.0,30.02,SW,225,1.8,4.3,86,0.00,,,0.00,WUHU216HW,2013-05-16 17:53:00,
2013-05-16 10:58:00,58.0,53.5,30.02,WSW,248,2.2,4.3,85,0.00,,,0.00,WUHU216HW,2013-05-16 17:58:00,
2013-05-16 11:03:00,58.0,53.5,30.02,WNW,293,2.0,3.4,85,0.00,,,0.00,WUHU216HW,2013-05-16 18:03:00,
2013-05-16 11:08:00,58.0,53.5,30.02,WSW,248,3.1,4.5,85,0.00,,,0.00,WUHU216HW,2013-05-16 18:08:00,
2013-05-16 11:13:00,58.0,53.5,30.02,SW,225,0.7,4.5,85,0.00,,,0.00,WUHU216HW,2013-05-16 18:13:00,
2013-05-16 11:18:00,57.6,52.7,30.02,WSW,248,2.7,3.4,84,0.00,,,0.00,WUHU216HW,2013-05-16 18:18:00,
2013-05-16 11:23:00,57.6,53.1,30.02,West,270,2.5,3.4,85,0.00,,,0.00,WUHU216HW,2013-05-16 18:23:00,
2013-05-16 11:28:00,57.6,52.7,30.02,West,270,2.5,2.9,84,0.00,,,0.00,WUHU216HW,2013-05-16 18:28:00,
2013-05-16 11:33:00,57.8,52.9,30.02,NW,315,1.1,2.5,84,0.00,,,0.00,WUHU216HW,2013-05-16 18:33:00,
2013-05-16 11:38:00,58.0,53.1,30.02,West,270,1.3,2.5,84,0.00,,,0.00,WUHU216HW,2013-05-16 18:38:00,
2013-05-16 11:43:00,58.3,53.5,30.01,SW,225,1.6,2.5,84,0.00,,,0.00,WUHU216HW,2013-05-16 18:43:00,
2013-05-16 11:48:00,58.9,54.0,30.01,SW,225,2.5,2.5,84,0.00,,,0.00,WUHU216HW,2013-05-16 18:48:00,
2013-05-16 11:53:00,59.4,54.5,30.02,SW,225,0.9,2.5,84,0.00,,,0.00,WUHU216HW,2013-05-16 18:53:00,
2013-05-16 11:58:00,59.8,54.6,30.02,SSW,203,2.7,2.7,83,0.00,,,0.00,WUHU216HW,2013-05-16 18:58:00,
2013-05-16 12:03:00,60.1,55.0,30.02,SSW,203,2.0,2.9,83,0.00,,,0.00,WUHU216HW,2013-05-16 19:03:00,
2013-05-16 12:08:00,60.7,55.5,30.02,SSW,203,1.8,2.9,83,0.00,,,0.00,WUHU216HW,2013-05-16 19:08:00,
2013-05-16 12:13:00,60.8,55.4,30.02,West,270,2.5,3.4,82,0.00,,,0.00,WUHU216HW,2013-05-16 19:13:00,
2013-05-16 12:18:00,60.8,55.1,30.02,WSW,248,2.9,3.4,81,0.00,,,0.00,WUHU216HW,2013-05-16 19:18:00,
2013-05-16 12:23:00,61.2,55.4,30.01,WSW,248,2.7,3.1,81,0.00,,,0.00,WUHU216HW,2013-05-16 19:23:00,
2013-05-16 12:28:00,61.4,55.5,30.01,WSW,248,1.1,3.1,81,0.00,,,0.00,WUHU216HW,2013-05-16 19:28:00,
2013-05-16 12:33:00,61.9,55.7,30.01,WSW,248,2.5,3.1,80,0.00,,,0.00,WUHU216HW,2013-05-16 19:33:00,
2013-05-16 12:38:00,62.3,55.6,30.01,SW,225,4.0,4.7,79,0.00,,,0.00,WUHU216HW,2013-05-16 19:38:00,
2013-05-16 12:43:00,62.5,55.8,30.01,WSW,248,3.1,4.9,79,0.00,,,0.00,WUHU216HW,2013-05-16 19:43:00,
2013-05-16 12:48:00,62.8,56.2,30.01,ESE,113,1.1,4.9,79,0.00,,,0.00,WUHU216HW,2013-05-16 19:48:00,
2013-05-16 12:53:00,63.2,56.5,30.01,SSW,203,3.8,3.8,79,0.00,,,0.00,WUHU216HW,2013-05-16 19:53:00,
2013-05-16 12:58:00,63.7,57.1,30.01,SW,225,4.7,4.9,79,0.00,,,0.00,WUHU216HW,2013-05-16 19:58:00,
2013-05-16 13:03:00,63.5,56.5,30.01,SW,225,2.7,5.4,78,0.00,,,0.00,WUHU216HW,2013-05-16 20:03:00,
2013-05-16 13:08:00,63.7,56.7,30.01,SW,225,3.1,5.4,78,0.00,,,0.00,WUHU216HW,2013-05-16 20:08:00,
2013-05-16 13:13:00,63.5,56.2,30.01,SSE,158,4.0,4.0,77,0.00,,,0.00,WUHU216HW,2013-05-16 20:13:00,
2013-05-16 13:18:00,63.7,56.3,30.00,WSW,248,2.9,5.6,77,0.00,,,0.00,WUHU216HW,2013-05-16 20:18:00,
2013-05-16 13:23:00,64.6,57.3,30.00,West,270,5.4,7.6,77,0.00,,,0.00,WUHU216HW,2013-05-16 20:23:00,
2013-05-16 13:28:00,65.2,57.8,30.00,SW,225,4.3,7.6,77,0.00,,,0.00,WUHU216HW,2013-05-16 20:28:00,
2013-05-16 13:33:00,65.3,57.6,30.00,WSW,248,4.3,5.4,76,0.00,,,0.00,WUHU216HW,2013-05-16 20:33:00,
2013-05-16 13:38:00,65.7,57.5,30.00,WSW,248,2.9,4.7,75,0.00,,,0.00,WUHU216HW,2013-05-16 20:38:00,
2013-05-16 13:43:00,66.2,57.7,30.00,West,270,6.3,6.3,74,0.00,,,0.00,WUHU216HW,2013-05-16 20:43:00,
2013-05-16 13:48:00,66.4,57.5,29.99,West,270,3.4,6.3,73,0.00,,,0.00,WUHU216HW,2013-05-16 20:48:00,
2013-05-16 13:53:00,66.8,58.2,29.99,WSW,248,4.0,5.1,74,0.00,,,0.00,WUHU216HW,2013-05-16 20:53:00,
2013-05-16 13:58:00,67.1,57.8,29.99,SW,225,2.2,5.4,72,0.00,,,0.00,WUHU216HW,2013-05-16 20:58:00,
2013-05-16 14:03:00,66.6,56.9,29.99,NW,315,2.0,5.4,71,0.00,,,0.00,WUHU216HW,2013-05-16 21:03:00,
2013-05-16 14:08:00,66.2,56.5,29.99,ESE,113,3.6,5.4,71,0.00,,,0.00,WUHU216HW,2013-05-16 21:08:00,
2013-05-16 14:13:00,65.3,55.4,29.99,ESE,113,1.1,5.1,70,0.00,,,0.00,WUHU216HW,2013-05-16 21:13:00,
2013-05-16 14:18:00,64.6,55.5,29.99,WNW,293,4.0,5.1,72,0.00,,,0.00,WUHU216HW,2013-05-16 21:18:00,
2013-05-16 14:23:00,64.6,55.1,29.99,NW,315,1.1,4.3,71,0.00,,,0.00,WUHU216HW,2013-05-16 21:23:00,
2013-05-16 14:28:00,64.6,55.1,29.98,NE,45,2.2,4.3,71,0.00,,,0.00,WUHU216HW,2013-05-16 21:28:00,
2013-05-16 14:33:00,64.6,55.1,29.98,WNW,293,3.4,3.8,71,0.00,,,0.00,WUHU216HW,2013-05-16 21:33:00,
2013-05-16 14:38:00,64.8,54.9,29.98,NE,45,1.8,4.3,70,0.00,,,0.00,WUHU216HW,2013-05-16 21:38:00,
2013-05-16 14:43:00,64.4,54.5,29.98,NNW,338,2.7,4.5,70,0.00,,,0.00,WUHU216HW,2013-05-16 21:43:00,
2013-05-16 14:48:00,64.4,54.9,29.97,East,90,1.1,4.5,71,0.00,,,0.00,WUHU216HW,2013-05-16 21:48:00,
2013-05-16 14:53:00,65.2,55.5,29.97,WNW,293,4.0,4.0,71,0.00,,,0.00,WUHU216HW,2013-05-16 21:53:00,
2013-05-16 14:58:00,65.9,55.5,29.97,West,270,6.0,7.6,69,0.00,,,0.00,WUHU216HW,2013-05-16 21:58:00,
2013-05-16 15:03:00,66.6,56.5,29.97,WSW,248,4.0,7.6,70,0.00,,,0.00,WUHU216HW,2013-05-16 22:03:00,
2013-05-16 15:08:00,67.0,56.4,29.97,WNW,293,7.6,7.6,69,0.00,,,0.00,WUHU216HW,2013-05-16 22:08:00,
2013-05-16 15:13:00,67.0,56.4,29.96,SW,225,6.9,7.6,69,0.00,,,0.00,WUHU216HW,2013-05-16 22:13:00,
2013-05-16 15:18:00,67.3,56.4,29.97,West,270,6.3,6.9,68,0.00,,,0.00,WUHU216HW,2013-05-16 22:18:00,
2013-05-16 15:23:00,67.3,56.0,29.96,South,180,0.4,7.2,67,0.00,,,0.00,WUHU216HW,2013-05-16 22:23:00,
2013-05-16 15:28:00,67.3,56.0,29.96,West,270,2.9,7.2,67,0.00,,,0.00,WUHU216HW,2013-05-16 22:28:00,
2013-05-16 15:33:00,67.3,55.5,29.96,West,270,5.6,6.3,66,0.00,,,0.00,WUHU216HW,2013-05-16 22:33:00,
2013-05-16 15:38:00,67.3,56.0,29.96,West,270,3.4,6.5,67,0.00,,,0.00,WUHU216HW,2013-05-16 22:38:00,
2013-05-16 15:43:00,67.1,55.8,29.96,SW,225,1.8,6.5,67,0.00,,,0.00,WUHU216HW,2013-05-16 22:43:00,
2013-05-16 15:48:00,67.1,54.9,29.96,WNW,293,7.6,8.3,65,0.00,,,0.00,WUHU216HW,2013-05-16 22:48:00,
2013-05-16 15:53:00,66.8,55.0,29.96,NW,315,8.5,8.5,66,0.00,,,0.00,WUHU216HW,2013-05-16 22:53:00,
2013-05-16 15:58:00,66.6,55.3,29.95,WSW,248,5.4,8.5,67,0.00,,,0.00,WUHU216HW,2013-05-16 22:58:00,
2013-05-16 16:03:00,66.6,55.3,29.95,SW,225,2.5,6.0,67,0.00,,,0.00,WUHU216HW,2013-05-16 23:03:00,
2013-05-16 16:08:00,66.6,54.5,29.95,NW,315,5.8,6.3,65,0.00,,,0.00,WUHU216HW,2013-05-16 23:08:00,
2013-05-16 16:13:00,66.4,54.3,29.95,WSW,248,4.5,6.5,65,0.00,,,0.00,WUHU216HW,2013-05-16 23:13:00,
2013-05-16 16:18:00,66.4,54.7,29.95,WSW,248,5.4,6.5,66,0.00,,,0.00,WUHU216HW,2013-05-16 23:18:00,
2013-05-16 16:23:00,66.6,54.8,29.95,NW,315,2.9,6.9,66,0.00,,,0.00,WUHU216HW,2013-05-16 23:23:00,
2013-05-16 16:28:00,66.8,55.0,29.95,SW,225,4.9,6.9,66,0.00,,,0.00,WUHU216HW,2013-05-16 23:28:00,
2013-05-16 16:33:00,66.8,55.0,29.94,WSW,248,2.5,5.4,66,0.00,,,0.00,WUHU216HW,2013-05-16 23:33:00,
2013-05-16 16:38:00,66.6,54.5,29.94,WSW,248,2.7,6.3,65,0.00,,,0.00,WUHU216HW,2013-05-16 23:38:00,
2013-05-16 16:43:00,66.6,54.5,29.94,NW,315,1.1,6.3,65,0.00,,,0.00,WUHU216HW,2013-05-16 23:43:00,
2013-05-16 16:48:00,66.6,54.5,29.94,WSW,248,3.6,4.9,65,0.00,,,0.00,WUHU216HW,2013-05-16 23:48:00,
2013-05-16 16:53:00,66.6,54.5,29.93,SW,225,3.4,6.9,65,0.00,,,0.00,WUHU216HW,2013-05-16 23:53:00,
2013-05-16 16:58:00,66.8,54.6,29.93,SW,225,3.4,6.9,65,0.00,,,0.00,WUHU216HW,2013-05-16 23:58:00,
2013-05-16 17:03:00,66.8,54.6,29.93,NW,315,2.7,5.4,65,0.00,,,0.00,WUHU216HW,2013-05-17 00:03:00,
2013-05-16 17:08:00,66.8,54.2,29.93,West,270,5.4,5.4,64,0.00,,,0.00,WUHU216HW,2013-05-17 00:08:00,
2013-05-16 17:14:00,66.6,54.0,29.93,WSW,248,2.5,5.4,64,0.00,,,0.00,WUHU216HW,2013-05-17 00:14:00,
2013-05-16 17:19:00,66.8,53.7,29.93,WNW,293,2.5,6.7,63,0.00,,,0.00,WUHU216HW,2013-05-17 00:19:00,
2013-05-16 17:24:00,66.8,53.7,29.92,NW,315,4.0,6.7,63,0.00,,,0.00,WUHU216HW,2013-05-17 00:24:00,
2013-05-16 17:29:00,66.6,53.7,29.92,SW,225,4.3,4.7,63,0.00,,,0.00,WUHU216HW,2013-05-17 00:29:00,
2013-05-16 17:34:00,66.4,53.5,29.92,SW,225,1.8,4.7,63,0.00,,,0.00,WUHU216HW,2013-05-17 00:34:00,
2013-05-16 17:39:00,66.2,53.3,29.92,WNW,293,1.3,3.8,63,0.00,,,0.00,WUHU216HW,2013-05-17 00:39:00,
2013-05-16 17:44:00,66.2,53.6,29.92,SE,135,1.3,3.6,64,0.00,,,0.00,WUHU216HW,2013-05-17 00:44:00,
2013-05-16 17:49:00,65.9,53.4,29.92,ESE,113,2.5,3.4,64,0.00,,,0.00,WUHU216HW,2013-05-17 00:49:00,
2013-05-16 17:54:00,65.5,53.4,29.92,East,90,2.5,2.9,65,0.00,,,0.00,WUHU216HW,2013-05-17 00:54:00,
2013-05-16 17:59:00,65.2,53.1,29.92,East,90,4.7,4.7,65,0.00,,,0.00,WUHU216HW,2013-05-17 00:59:00,
2013-05-16 18:04:00,64.8,52.8,29.92,ESE,113,1.6,4.7,65,0.00,,,0.00,WUHU216HW,2013-05-17 01:04:00,
2013-05-16 18:09:00,64.4,52.4,29.91,NW,315,1.8,4.0,65,0.00,,,0.00,WUHU216HW,2013-05-17 01:09:00,
2013-05-16 18:14:00,64.1,52.0,29.91,ENE,68,3.4,6.0,65,0.00,,,0.00,WUHU216HW,2013-05-17 01:14:00,
2013-05-16 18:19:00,63.9,52.3,29.92,North,0,2.5,6.9,66,0.00,,,0.00,WUHU216HW,2013-05-17 01:19:00,
2013-05-16 18:24:00,63.7,52.1,29.91,East,90,4.9,6.9,66,0.00,,,0.00,WUHU216HW,2013-05-17 01:24:00,
2013-05-16 18:29:00,63.4,52.2,29.91,ENE,68,1.6,4.9,67,0.00,,,0.00,WUHU216HW,2013-05-17 01:29:00,
2013-05-16 18:34:00,62.8,51.7,29.91,SE,135,1.3,4.0,67,0.00,,,0.00,WUHU216HW,2013-05-17 01:34:00,
2013-05-16 18:39:00,62.5,51.8,29.91,NE,45,2.5,4.5,68,0.00,,,0.00,WUHU216HW,2013-05-17 01:39:00,
2013-05-16 18:44:00,62.1,51.4,29.91,ENE,68,1.1,4.5,68,0.00,,,0.00,WUHU216HW,2013-05-17 01:44:00,
2013-05-16 18:49:00,61.9,51.3,29.91,ENE,68,0.4,3.8,68,0.00,,,0.00,WUHU216HW,2013-05-17 01:49:00,
2013-05-16 18:54:00,61.6,50.9,29.91,SE,135,1.1,1.8,68,0.00,,,0.00,WUHU216HW,2013-05-17 01:54:00,
2013-05-16 18:59:00,61.4,50.8,29.91,SE,135,1.3,3.4,68,0.00,,,0.00,WUHU216HW,2013-05-17 01:59:00,
2013-05-16 19:04:00,61.2,50.6,29.91,SSE,158,1.1,4.7,68,0.00,,,0.00,WUHU216HW,2013-05-17 02:04:00,
2013-05-16 19:09:00,61.2,50.6,29.92,East,90,2.9,4.7,68,0.00,,,0.00,WUHU216HW,2013-05-17 02:09:00,
2013-05-16 19:14:00,61.0,50.0,29.91,ENE,68,1.8,2.9,67,0.00,,,0.00,WUHU216HW,2013-05-17 02:14:00,
2013-05-16 19:19:00,60.8,49.9,29.91,West,270,2.5,2.5,67,0.00,,,0.00,WUHU216HW,2013-05-17 02:19:00,
2013-05-16 19:24:00,60.8,50.3,29.91,North,0,0.4,2.5,68,0.00,,,0.00,WUHU216HW,2013-05-17 02:24:00,
2013-05-16 19:29:00,60.7,50.1,29.92,NNE,23,0.9,2.0,68,0.00,,,0.00,WUHU216HW,2013-05-17 02:29:00,
2013-05-16 19:34:00,60.7,50.1,29.91,SE,135,1.3,2.0,68,0.00,,,0.00,WUHU216HW,2013-05-17 02:34:00,
2013-05-16 19:39:00,60.3,50.1,29.92,ENE,68,0.7,1.8,69,0.00,,,0.00,WUHU216HW,2013-05-17 02:39:00,
2013-05-16 19:44:00,60.1,50.0,29.92,NE,45,1.1,1.3,69,0.00,,,0.00,WUHU216HW,2013-05-17 02:44:00,
2013-05-16 19:49:00,59.9,49.8,29.92,ENE,68,0.0,1.1,69,0.00,,,0.00,WUHU216HW,2013-05-17 02:49:00,
2013-05-16 19:54:00,59.8,49.6,29.92,WSW,248,0.0,0.9,69,0.00,,,0.00,WUHU216HW,2013-05-17 02:54:00,
2013-05-16 19:59:00,59.8,49.6,29.92,WNW,293,0.7,1.1,69,0.00,,,0.00,WUHU216HW,2013-05-17 02:59:00,
2013-05-16 20:04:00,59.4,49.7,29.92,WNW,293,0.2,1.1,70,0.00,,,0.00,WUHU216HW,2013-05-17 03:04:00,
2013-05-16 20:09:00,59.2,49.5,29.92,West,270,0.9,0.9,70,0.00,,,0.00,WUHU216HW,2013-05-17 03:09:00,
2013-05-16 20:14:00,58.9,49.5,29.92,WNW,293,0.9,0.9,71,0.00,,,0.00,WUHU216HW,2013-05-17 03:14:00,
2013-05-16 20:19:00,58.5,49.1,29.92,NW,315,0.2,0.9,71,0.00,,,0.00,WUHU216HW,2013-05-17 03:19:00,
2013-05-16 20:24:00,58.0,49.0,29.92,North,0,1.1,1.1,72,0.00,,,0.00,WUHU216HW,2013-05-17 03:24:00,
2013-05-16 20:29:00,57.6,48.6,29.92,ENE,68,0.4,1.1,72,0.00,,,0.00,WUHU216HW,2013-05-17 03:29:00,
2013-05-16 20:34:00,56.9,48.2,29.92,NNE,23,1.1,1.1,73,0.00,,,0.00,WUHU216HW,2013-05-17 03:34:00,
2013-05-16 20:39:00,56.5,48.0,29.92,NNE,23,0.4,1.1,73,0.00,,,0.00,WUHU216HW,2013-05-17 03:39:00,
2013-05-16 20:44:00,56.2,48.0,29.92,North,0,0.0,0.9,74,0.00,,,0.00,WUHU216HW,2013-05-17 03:44:00,
2013-05-16 20:49:00,55.8,47.6,29.92,North,0,0.0,0.7,74,0.00,,,0.00,WUHU216HW,2013-05-17 03:49:00,
2013-05-16 20:54:00,55.4,47.3,29.92,North,0,0.0,0.0,74,0.00,,,0.00,WUHU216HW,2013-05-17 03:54:00,
2013-05-16 20:59:00,55.1,47.3,29.93,ENE,68,0.7,1.1,75,0.00,,,0.00,WUHU216HW,2013-05-17 03:59:00,
2013-05-16 21:04:00,54.5,47.1,29.93,ENE,68,2.2,2.2,76,0.00,,,0.00,WUHU216HW,2013-05-17 04:04:00,
2013-05-16 21:09:00,54.2,46.5,29.93,NE,45,1.3,2.2,75,0.00,,,0.00,WUHU216HW,2013-05-17 04:09:00,
2013-05-16 21:14:00,53.8,46.5,29.93,ENE,68,1.3,2.0,76,0.00,,,0.00,WUHU216HW,2013-05-17 04:14:00,
2013-05-16 21:19:00,53.6,46.6,29.93,ENE,68,2.5,2.5,77,0.00,,,0.00,WUHU216HW,2013-05-17 04:19:00,
2013-05-16 21:24:00,53.1,46.1,29.93,East,90,0.4,2.5,77,0.00,,,0.00,WUHU216HW,2013-05-17 04:24:00,
2013-05-16 21:29:00,52.9,46.3,29.93,SSE,158,0.0,2.2,78,0.00,,,0.00,WUHU216HW,2013-05-17 04:29:00,
2013-05-16 21:34:00,52.7,46.1,29.93,East,90,0.0,0.4,78,0.00,,,0.00,WUHU216HW,2013-05-17 04:34:00,
2013-05-16 21:39:00,52.6,45.9,29.93,East,90,1.8,1.8,78,0.00,,,0.00,WUHU216HW,2013-05-17 04:39:00,
2013-05-16 21:44:00,52.2,45.5,29.93,ENE,68,2.2,2.7,78,0.00,,,0.00,WUHU216HW,2013-05-17 04:44:00,
2013-05-16 21:49:00,51.8,45.5,29.93,ENE,68,2.2,2.7,79,0.00,,,0.00,WUHU216HW,2013-05-17 04:49:00,
2013-05-16 21:54:00,51.7,45.4,29.93,ENE,68,1.1,2.7,79,0.00,,,0.00,WUHU216HW,2013-05-17 04:54:00,
2013-05-16 21:59:00,51.5,45.2,29.93,East,90,1.8,1.8,79,0.00,,,0.00,WUHU216HW,2013-05-17 04:59:00,
2013-05-16 22:04:00,51.5,45.5,29.93,ENE,68,2.2,2.2,80,0.00,,,0.00,WUHU216HW,2013-05-17 05:04:00,
2013-05-16 22:09:00,51.1,45.2,29.93,ENE,68,2.5,2.9,80,0.00,,,0.00,WUHU216HW,2013-05-17 05:09:00,
2013-05-16 22:14:00,50.9,45.3,29.93,NE,45,1.8,2.9,81,0.00,,,0.00,WUHU216HW,2013-05-17 05:14:00,
2013-05-16 22:19:00,50.8,45.1,29.93,NE,45,2.2,2.5,81,0.00,,,0.00,WUHU216HW,2013-05-17 05:19:00,
2013-05-16 22:24:00,50.4,44.7,29.94,NE,45,1.8,2.5,81,0.00,,,0.00,WUHU216HW,2013-05-17 05:24:00,
2013-05-16 22:29:00,50.0,44.7,29.94,NE,45,2.0,2.0,82,0.00,,,0.00,WUHU216HW,2013-05-17 05:29:00,
2013-05-16 22:34:00,50.0,44.7,29.93,ENE,68,2.5,2.5,82,0.00,,,0.00,WUHU216HW,2013-05-17 05:34:00,
2013-05-16 22:39:00,49.9,44.6,29.93,NE,45,2.9,2.9,82,0.00,,,0.00,WUHU216HW,2013-05-17 05:39:00,
2013-05-16 22:44:00,49.7,44.4,29.93,ENE,68,2.0,2.9,82,0.00,,,0.00,WUHU216HW,2013-05-17 05:44:00,
2013-05-16 22:49:00,49.5,44.2,29.93,ENE,68,1.8,2.7,82,0.00,,,0.00,WUHU216HW,2013-05-17 05:49:00,
2013-05-16 22:54:00,49.3,44.3,29.93,NE,45,2.5,3.1,83,0.00,,,0.00,WUHU216HW,2013-05-17 05:54:00,
2013-05-16 22:59:00,49.3,44.3,29.94,NE,45,2.7,3.1,83,0.00,,,0.00,WUHU216HW,2013-05-17 05:59:00,
2013-05-16 23:04:00,49.1,44.1,29.94,NE,45,2.5,3.4,83,0.00,,,0.00,WUHU216HW,2013-05-17 06:04:00,
2013-05-16 23:09:00,49.1,44.1,29.93,NE,45,2.5,3.4,83,0.00,,,0.00,WUHU216HW,2013-05-17 06:09:00,
2013-05-16 23:14:00,49.0,44.0,29.93,NE,45,3.4,3.4,83,0.00,,,0.00,WUHU216HW,2013-05-17 06:14:00,
2013-05-16 23:19:00,49.0,44.0,29.94,NE,45,2.0,3.6,83,0.00,,,0.00,WUHU216HW,2013-05-17 06:19:00,
2013-05-16 23:24:00,48.8,43.8,29.94,East,90,1.1,3.6,83,0.00,,,0.00,WUHU216HW,2013-05-17 06:24:00,
2013-05-16 23:29:00,48.6,43.7,29.94,East,90,0.4,2.5,83,0.00,,,0.00,WUHU216HW,2013-05-17 06:29:00,
2013-05-16 23:34:00,48.6,43.7,29.93,ESE,113,0.7,1.1,83,0.00,,,0.00,WUHU216HW,2013-05-17 06:34:00,
2013-05-16 23:40:00,48.6,43.7,29.94,ESE,113,0.2,1.1,83,0.00,,,0.00,WUHU216HW,2013-05-17 06:40:00,
2013-05-16 23:45:00,48.4,43.5,29.94,WSW,248,0.7,1.1,83,0.00,,,0.00,WUHU216HW,2013-05-17 06:45:00,
2013-05-16 23:50:00,48.4,43.7,29.94,ENE,68,1.1,1.3,84,0.00,,,0.00,WUHU216HW,2013-05-17 06:50:00,
2013-05-16 23:55:00,48.2,43.6,29.94,ENE,68,1.8,1.8,84,0.00,,,0.00,WUHU216HW,2013-05-17 06:55:00,